User: anonymous   Login
Location: Vancouver
(49.2500°N, 123.1330°W)
Time: 23:45:31
(UTC-08:00)
Language:

ISS - Orbit

View from above orbital plane
View from above orbital plane
View from above satellite
View from above satellite

Ground track
Ground track

The orbit data is extracted from the following two-line orbital elements,

1 25544U 98067A   17057.62612410  .00016717  00000-0  10270-3 0  9021
2 25544  51.6382 229.4388 0006600 235.2071 124.8461 15.54439600  4552
Epoch (UTC): 26 February 2017 15:01:37
Eccentricity: 0.0006600
inclination: 51.6382°
perigee height: 399 km
apogee height: 408 km
right ascension of ascending node: 229.4388°
argument of perigee: 235.2071°
revolutions per day: 15.54439600
mean anomaly at epoch: 124.8461°
orbit number at epoch: 455

The dashed part of the orbit path shows where the satellite is in the earth's shadow,  

DLR